BAW66K EGLL-LGMK

Flight info

Callsign BAW66K
Flight time 3h 17m
Altitude 35000
Route DET L6 DVR UL9 KONAN UL607 MATUG DCT NONKO DCT VIBOM DCT NOMBO DCT RIDAR DCT RADIZ DCT NEMEK/N0443F370 DCT ETOBI DCT NILKU DCT AKIKA DCT MAVAR DCT BITLA UN137 AGAPU
Aircraft A320/M-SDE3FGHIJ1KRWXY/LB1

Departure

Time 2026-05-04 12:07
Airport London Heathrow Airport (EGLL)

Arrival

Time 2026-05-04 15:25
Airport Mykonos Island National Airport (LGMK)
Time Latitude Longitude Altitude Speed Heading
2026-05-04 11:22 51.46930 -0.48859 86 ft 0 kts 360°
2026-05-04 11:55 51.46926 -0.48859 86 ft 3 kts 360°
2026-05-04 11:56 51.46900 -0.48859 86 ft 2 kts 360°
2026-05-04 11:56 51.46882 -0.48856 88 ft 4 kts 309°
2026-05-04 11:56 51.46876 -0.48822 90 ft 4 kts 270°
2026-05-04 11:56 51.46876 -0.48779 88 ft 4 kts 270°
2026-05-04 11:57 51.46877 -0.48736 88 ft 3 kts 270°
2026-05-04 11:57 51.46877 -0.48704 86 ft 2 kts 270°
2026-05-04 11:57 51.46877 -0.48700 86 ft 1 kts 270°
2026-05-04 12:00 51.46877 -0.48711 86 ft 2 kts 270°
2026-05-04 12:00 51.46867 -0.48744 111 ft 5 kts 219°
2026-05-04 12:00 51.46818 -0.48750 86 ft 8 kts 179°
2026-05-04 12:01 51.46755 -0.48750 86 ft 10 kts 179°
2026-05-04 12:01 51.46683 -0.48748 89 ft 11 kts 176°
2026-05-04 12:02 51.46655 -0.47423 86 ft 30 kts 90°
2026-05-04 12:03 51.46656 -0.47082 88 ft 31 kts 90°
2026-05-04 12:03 51.46658 -0.46737 89 ft 31 kts 89°
2026-05-04 12:03 51.46659 -0.46272 87 ft 32 kts 89°
2026-05-04 12:03 51.46661 -0.45917 86 ft 32 kts 90°
2026-05-04 12:04 51.46661 -0.45679 86 ft 32 kts 90°
2026-05-04 12:04 51.46662 -0.45313 86 ft 33 kts 90°
2026-05-04 12:04 51.46664 -0.44952 86 ft 33 kts 90°
2026-05-04 12:04 51.46665 -0.44586 90 ft 33 kts 90°
2026-05-04 12:05 51.46666 -0.44253 86 ft 21 kts 90°
2026-05-04 12:05 51.46664 -0.44076 86 ft 10 kts 102°
2026-05-04 12:05 51.46604 -0.44053 86 ft 8 kts 179°
2026-05-04 12:05 51.46544 -0.44053 87 ft 9 kts 180°
2026-05-04 12:06 51.46494 -0.44062 87 ft 7 kts 219°
2026-05-04 12:06 51.46493 -0.44144 87 ft 8 kts 270°
2026-05-04 12:06 51.46492 -0.44405 87 ft 54 kts 270°
2026-05-04 12:06 51.46489 -0.45359 87 ft 115 kts 270°
2026-05-04 12:07 51.46484 -0.46905 92 ft 161 kts 270°
2026-05-04 12:07 51.46480 -0.48815 425 ft 170 kts 271°
2026-05-04 12:07 51.46451 -0.50714 992 ft 171 kts 269°
2026-05-04 12:07 51.46193 -0.52598 1433 ft 183 kts 243°
2026-05-04 12:08 51.45261 -0.54114 1814 ft 201 kts 206°
2026-05-04 12:08 51.43895 -0.54532 2371 ft 206 kts 171°
2026-05-04 12:08 51.42586 -0.53616 2903 ft 214 kts 138°
2026-05-04 12:08 51.41453 -0.51903 3257 ft 234 kts 135°
2026-05-04 12:09 51.40235 -0.50004 3637 ft 255 kts 135°
2026-05-04 12:09 51.38942 -0.47987 4342 ft 262 kts 136°
2026-05-04 12:09 51.37623 -0.45941 5148 ft 266 kts 137°
2026-05-04 12:09 51.36287 -0.43877 5958 ft 269 kts 137°
2026-05-04 12:10 51.34930 -0.41786 6729 ft 272 kts 137°
2026-05-04 12:10 51.33558 -0.39673 7521 ft 276 kts 136°
2026-05-04 12:10 51.32413 -0.37200 8237 ft 281 kts 116°
2026-05-04 12:10 51.31925 -0.34165 9006 ft 287 kts 94°
2026-05-04 12:11 51.31872 -0.30954 9751 ft 291 kts 92°
2026-05-04 12:11 51.31835 -0.27703 10401 ft 294 kts 92°
2026-05-04 12:11 51.31798 -0.24459 11036 ft 297 kts 92°
2026-05-04 12:11 51.31757 -0.21134 11680 ft 301 kts 93°
2026-05-04 12:12 51.31709 -0.17717 12002 ft 318 kts 93°
2026-05-04 12:12 51.31656 -0.14075 12139 ft 338 kts 93°
2026-05-04 12:12 51.31599 -0.10217 12341 ft 355 kts 92°
2026-05-04 12:12 51.31542 -0.06228 12840 ft 362 kts 92°
2026-05-04 12:13 51.31483 -0.02187 13465 ft 365 kts 93°
2026-05-04 12:14 51.31022 0.26948 17344 ft 383 kts 93°
2026-05-04 12:15 51.30950 0.31215 17903 ft 385 kts 93°
2026-05-04 12:15 51.30872 0.35509 18450 ft 388 kts 94°
2026-05-04 12:15 51.30791 0.39851 18943 ft 392 kts 94°
2026-05-04 12:15 51.30709 0.44211 19420 ft 394 kts 94°
2026-05-04 12:16 51.30630 0.48609 19843 ft 398 kts 94°
2026-05-04 12:16 51.30542 0.53051 20286 ft 402 kts 94°
2026-05-04 12:16 51.30430 0.57539 20751 ft 406 kts 97°
2026-05-04 12:16 51.29978 0.61992 21189 ft 407 kts 107°
2026-05-04 12:17 51.29185 0.66348 21610 ft 409 kts 109°
2026-05-04 12:17 51.28377 0.70720 22015 ft 413 kts 109°
2026-05-04 12:17 51.27566 0.75143 22409 ft 418 kts 108°
2026-05-04 12:17 51.26747 0.79615 22866 ft 419 kts 108°
2026-05-04 12:18 51.25933 0.84097 23260 ft 423 kts 109°
2026-05-04 12:18 51.25104 0.88630 23659 ft 426 kts 109°
2026-05-04 12:18 51.24262 0.93182 23995 ft 428 kts 109°
2026-05-04 12:18 51.23416 0.97759 24324 ft 430 kts 109°
2026-05-04 12:19 51.22565 1.02353 24670 ft 432 kts 109°
2026-05-04 12:19 51.21721 1.06897 25007 ft 434 kts 109°
2026-05-04 12:19 51.20860 1.11514 25343 ft 435 kts 109°
2026-05-04 12:19 51.19993 1.16146 25675 ft 437 kts 109°
2026-05-04 12:20 51.19116 1.20820 26034 ft 442 kts 109°
2026-05-04 12:20 51.18229 1.25509 26468 ft 441 kts 109°
2026-05-04 12:20 51.17337 1.30187 26784 ft 442 kts 110°
2026-05-04 12:20 51.16501 1.34904 27092 ft 445 kts 105°
2026-05-04 12:21 51.16064 1.39804 27385 ft 449 kts 96°
2026-05-04 12:21 51.15847 1.44769 27672 ft 448 kts 97°
2026-05-04 12:21 51.15612 1.49724 28123 ft 448 kts 97°
2026-05-04 12:21 51.15370 1.54648 28606 ft 445 kts 98°
2026-05-04 12:22 51.15131 1.59560 29065 ft 444 kts 98°
2026-05-04 12:22 51.14890 1.64464 29524 ft 443 kts 98°
2026-05-04 12:22 51.14649 1.69336 29988 ft 441 kts 98°
2026-05-04 12:22 51.14404 1.74202 30393 ft 440 kts 98°
2026-05-04 12:23 51.14158 1.79037 30751 ft 439 kts 98°
2026-05-04 12:23 51.13911 1.83878 31106 ft 439 kts 99°
2026-05-04 12:23 51.13663 1.88723 31464 ft 438 kts 99°
2026-05-04 12:23 51.13413 1.93554 31768 ft 438 kts 99°
2026-05-04 12:24 51.13161 1.98393 32094 ft 439 kts 99°
2026-05-04 12:24 51.12910 2.03239 32440 ft 438 kts 99°
2026-05-04 12:24 51.12655 2.08071 32789 ft 438 kts 100°
2026-05-04 12:24 51.12392 2.12893 33139 ft 438 kts 100°
2026-05-04 12:25 51.12128 2.17723 33493 ft 438 kts 100°
2026-05-04 12:25 51.11867 2.22558 33824 ft 438 kts 100°
2026-05-04 12:25 51.11612 2.27319 34119 ft 438 kts 100°
2026-05-04 12:25 51.11352 2.32146 34377 ft 438 kts 100°
2026-05-04 12:26 51.11087 2.37026 34615 ft 437 kts 100°
2026-05-04 12:26 51.10822 2.41796 34847 ft 438 kts 100°
2026-05-04 12:26 51.10544 2.46693 34983 ft 439 kts 100°
2026-05-04 12:26 51.10263 2.51559 35017 ft 445 kts 100°
2026-05-04 12:27 51.09685 2.61431 35016 ft 455 kts 100°
2026-05-04 12:27 51.08397 2.71184 35017 ft 449 kts 111°
2026-05-04 12:28 51.06660 2.80735 35013 ft 450 kts 111°
2026-05-04 12:28 51.04919 2.90307 35027 ft 451 kts 111°
2026-05-04 12:29 51.03166 2.99895 35022 ft 452 kts 111°
2026-05-04 12:29 51.01403 3.09485 35019 ft 452 kts 111°
2026-05-04 12:30 50.99636 3.19060 35017 ft 452 kts 111°
2026-05-04 12:30 50.97861 3.28631 35008 ft 452 kts 111°
2026-05-04 12:31 50.96080 3.38199 34984 ft 452 kts 112°
2026-05-04 12:31 50.94275 3.47767 34978 ft 453 kts 112°
2026-05-04 12:32 50.91557 3.62156 34989 ft 455 kts 112°
2026-05-04 12:33 50.89729 3.71745 34995 ft 455 kts 112°
2026-05-04 12:33 50.87880 3.81323 34985 ft 455 kts 112°
2026-05-04 12:34 50.86030 3.90830 34983 ft 455 kts 112°
2026-05-04 12:34 50.84155 4.00409 34989 ft 456 kts 112°
2026-05-04 12:35 50.82272 4.10000 34995 ft 456 kts 112°
2026-05-04 12:35 50.80387 4.19587 35003 ft 456 kts 112°
2026-05-04 12:36 50.78499 4.29156 35000 ft 456 kts 112°
2026-05-04 12:36 50.76602 4.38727 35010 ft 456 kts 113°
2026-05-04 12:37 50.74689 4.48285 35017 ft 456 kts 113°
2026-05-04 12:37 50.72768 4.57818 35019 ft 456 kts 113°
2026-05-04 12:38 50.70873 4.67369 35002 ft 456 kts 112°
2026-05-04 12:38 50.69030 4.76947 34999 ft 455 kts 112°
2026-05-04 12:39 50.67196 4.86445 34998 ft 456 kts 112°
2026-05-04 12:39 50.65322 4.96003 34998 ft 456 kts 113°
2026-05-04 12:40 50.63367 5.05501 35002 ft 456 kts 114°
2026-05-04 12:40 50.61381 5.14992 34984 ft 456 kts 114°
2026-05-04 12:41 50.59404 5.24498 34992 ft 457 kts 114°
2026-05-04 12:41 50.57425 5.34030 35005 ft 459 kts 114°
2026-05-04 12:42 50.55437 5.43559 35004 ft 459 kts 114°
2026-05-04 12:42 50.53434 5.53076 35011 ft 458 kts 114°
2026-05-04 12:43 50.51466 5.62615 34995 ft 461 kts 109°
2026-05-04 12:43 50.50165 5.72532 34996 ft 464 kts 107°
2026-05-04 12:44 50.48894 5.82463 34995 ft 463 kts 107°
2026-05-04 12:44 50.47600 5.92383 34996 ft 464 kts 107°
2026-05-04 12:45 50.46296 6.02289 34999 ft 463 kts 107°
2026-05-04 12:45 50.44988 6.12189 34982 ft 464 kts 107°
2026-05-04 12:46 50.43669 6.22108 34989 ft 464 kts 107°
2026-05-04 12:46 50.42335 6.32022 34992 ft 464 kts 107°
2026-05-04 12:47 50.40348 6.41494 34990 ft 454 kts 120°
2026-05-04 12:47 50.37691 6.50484 34972 ft 454 kts 120°
2026-05-04 12:48 50.35031 6.59474 34974 ft 456 kts 120°
2026-05-04 12:48 50.32355 6.68485 34999 ft 457 kts 120°
2026-05-04 12:49 50.29674 6.77481 35013 ft 456 kts 120°
2026-05-04 12:49 50.27433 6.84952 35028 ft 457 kts 121°
2026-05-04 12:50 50.24734 6.93931 35023 ft 456 kts 120°
2026-05-04 12:50 50.22037 7.02909 35030 ft 457 kts 120°
2026-05-04 12:51 50.19331 7.11887 35021 ft 457 kts 120°
2026-05-04 12:51 50.16605 7.20846 35024 ft 457 kts 120°
2026-05-04 12:52 50.13878 7.29807 35016 ft 457 kts 121°
2026-05-04 12:52 50.11147 7.38749 34994 ft 457 kts 121°
2026-05-04 12:53 50.08398 7.47690 34997 ft 458 kts 121°
2026-05-04 12:53 50.05642 7.56642 34978 ft 458 kts 121°
2026-05-04 12:54 50.02879 7.65574 34977 ft 458 kts 121°
2026-05-04 12:54 50.00105 7.74502 34982 ft 459 kts 121°
2026-05-04 12:55 49.97326 7.83433 34977 ft 459 kts 121°
2026-05-04 12:55 49.94542 7.92364 34988 ft 460 kts 121°
2026-05-04 12:56 49.91744 8.01283 34979 ft 460 kts 121°
2026-05-04 12:56 49.88940 8.10204 34987 ft 460 kts 121°
2026-05-04 12:57 49.86131 8.19106 34981 ft 459 kts 121°
2026-05-04 12:57 49.83331 8.27929 34978 ft 459 kts 121°
2026-05-04 12:58 49.80497 8.36799 34980 ft 460 kts 121°
2026-05-04 12:58 49.77231 8.45227 34985 ft 455 kts 128°
2026-05-04 12:59 49.73717 8.53391 34989 ft 456 kts 128°
2026-05-04 12:59 49.70199 8.61561 34995 ft 456 kts 129°
2026-05-04 13:00 49.66662 8.69723 35002 ft 457 kts 129°
2026-05-04 13:00 49.63116 8.77877 35013 ft 458 kts 129°
2026-05-04 13:01 49.59564 8.86018 35010 ft 457 kts 129°
2026-05-04 13:01 49.56005 8.94164 35025 ft 458 kts 129°
2026-05-04 13:02 49.52453 9.02284 34996 ft 457 kts 129°
2026-05-04 13:02 49.48892 9.10389 35002 ft 457 kts 129°
2026-05-04 13:03 49.45344 9.18437 35011 ft 457 kts 128°
2026-05-04 13:03 49.41830 9.26662 35009 ft 458 kts 128°
2026-05-04 13:04 49.38392 9.34837 35014 ft 458 kts 127°
2026-05-04 13:04 49.34921 9.43028 34993 ft 458 kts 127°
2026-05-04 13:05 49.31412 9.51201 35001 ft 458 kts 128°
2026-05-04 13:05 49.27884 9.59358 35005 ft 459 kts 128°
2026-05-04 13:06 49.24356 9.67505 35009 ft 459 kts 128°
2026-05-04 13:06 49.20825 9.75653 35016 ft 460 kts 128°
2026-05-04 13:07 49.17294 9.83793 35001 ft 459 kts 128°
2026-05-04 13:07 49.13755 9.91934 35004 ft 460 kts 128°
2026-05-04 13:08 49.10202 10.00063 35014 ft 460 kts 128°
2026-05-04 13:08 49.06588 10.08115 35000 ft 457 kts 133°
2026-05-04 13:09 49.02258 10.15033 35011 ft 453 kts 139°
2026-05-04 13:09 48.97762 10.21864 35005 ft 454 kts 139°
2026-05-04 13:10 48.93290 10.28655 35020 ft 454 kts 139°
2026-05-04 13:10 48.88812 10.35431 35027 ft 454 kts 139°
2026-05-04 13:11 48.84332 10.42190 35024 ft 453 kts 139°
2026-05-04 13:11 48.79859 10.48920 35020 ft 453 kts 139°
2026-05-04 13:12 48.75408 10.55606 35001 ft 453 kts 139°
2026-05-04 13:12 48.70927 10.62307 35012 ft 452 kts 139°
2026-05-04 13:13 48.66441 10.68984 35011 ft 452 kts 139°
2026-05-04 13:13 48.61959 10.75645 35012 ft 452 kts 139°
2026-05-04 13:14 48.57614 10.82544 35002 ft 455 kts 132°
2026-05-04 13:14 48.53627 10.89972 34992 ft 455 kts 132°
2026-05-04 13:15 48.49628 10.97391 34977 ft 456 kts 133°
2026-05-04 13:15 48.45624 11.04791 34979 ft 455 kts 133°
2026-05-04 13:16 48.41615 11.12177 34980 ft 455 kts 133°
2026-05-04 13:16 48.37613 11.19551 34978 ft 455 kts 133°
2026-05-04 13:17 48.33608 11.26912 34962 ft 455 kts 133°
2026-05-04 13:17 48.29592 11.34262 34972 ft 455 kts 133°
2026-05-04 13:18 48.25560 11.41603 34977 ft 456 kts 133°
2026-05-04 13:18 48.21532 11.48936 34980 ft 456 kts 133°
2026-05-04 13:19 48.17518 11.56220 34984 ft 456 kts 133°
2026-05-04 13:19 48.13442 11.63586 34984 ft 456 kts 133°
2026-05-04 13:20 48.09423 11.70836 34978 ft 456 kts 133°
2026-05-04 13:20 48.05374 11.78117 34979 ft 455 kts 133°
2026-05-04 13:21 48.01322 11.85387 34976 ft 455 kts 133°
2026-05-04 13:21 47.97281 11.92626 34970 ft 453 kts 133°
2026-05-04 13:22 47.93242 11.99842 34955 ft 453 kts 133°
2026-05-04 13:22 47.89203 12.07035 34953 ft 452 kts 133°
2026-05-04 13:23 47.85153 12.14222 34951 ft 452 kts 133°
2026-05-04 13:23 47.81106 12.21381 34948 ft 452 kts 133°
2026-05-04 13:24 47.77073 12.28516 34937 ft 451 kts 133°
2026-05-04 13:24 47.73029 12.35652 34944 ft 452 kts 133°
2026-05-04 13:25 47.66936 12.46339 34957 ft 454 kts 133°
2026-05-04 13:25 47.62842 12.53464 34967 ft 451 kts 135°
2026-05-04 13:26 47.58356 12.59910 34961 ft 450 kts 139°
2026-05-04 13:26 47.53843 12.66293 34945 ft 449 kts 139°
2026-05-04 13:27 47.49325 12.72690 34954 ft 449 kts 139°
2026-05-04 13:27 47.44805 12.79074 34963 ft 450 kts 139°
2026-05-04 13:28 47.40271 12.85444 34978 ft 450 kts 139°
2026-05-04 13:28 47.35730 12.91800 34981 ft 450 kts 139°
2026-05-04 13:29 47.31197 12.98132 34984 ft 449 kts 139°
2026-05-04 13:29 47.26656 13.04463 34971 ft 449 kts 139°
2026-05-04 13:30 47.22109 13.10788 34982 ft 450 kts 139°
2026-05-04 13:30 47.17552 13.17099 35006 ft 450 kts 139°
2026-05-04 13:31 47.13014 13.23373 35010 ft 450 kts 139°
2026-05-04 13:31 47.08455 13.29682 35020 ft 450 kts 139°
2026-05-04 13:32 47.03885 13.35993 35016 ft 451 kts 139°
2026-05-04 13:32 46.99297 13.42291 35060 ft 451 kts 139°
2026-05-04 13:33 46.94733 13.48534 35056 ft 452 kts 139°
2026-05-04 13:33 46.90139 13.54801 35062 ft 451 kts 139°
2026-05-04 13:34 46.85551 13.61058 35052 ft 451 kts 140°
2026-05-04 13:34 46.81687 13.66310 35034 ft 453 kts 140°
2026-05-04 13:35 46.74782 13.75685 35025 ft 455 kts 139°
2026-05-04 13:36 46.70148 13.81958 35044 ft 455 kts 139°
2026-05-04 13:36 46.65495 13.88221 35051 ft 456 kts 140°
2026-05-04 13:37 46.60814 13.94511 35057 ft 459 kts 139°
2026-05-04 13:37 46.56130 14.00808 35070 ft 458 kts 139°
2026-05-04 13:38 46.51453 14.07091 35052 ft 458 kts 139°
2026-05-04 13:38 46.46767 14.13355 35048 ft 459 kts 140°
2026-05-04 13:39 46.42067 14.19623 35043 ft 457 kts 140°
2026-05-04 13:39 46.37375 14.25849 35072 ft 457 kts 139°
2026-05-04 13:40 46.32687 14.32062 35068 ft 457 kts 139°
2026-05-04 13:40 46.27986 14.38277 35069 ft 458 kts 140°
2026-05-04 13:41 46.23270 14.44499 35067 ft 460 kts 140°
2026-05-04 13:41 46.18568 14.50695 35073 ft 460 kts 139°
2026-05-04 13:42 46.11450 14.60026 35071 ft 461 kts 139°
2026-05-04 13:42 46.06702 14.66242 35069 ft 461 kts 139°
2026-05-04 13:43 46.01938 14.72459 35080 ft 462 kts 139°
2026-05-04 13:43 45.97179 14.78662 35054 ft 462 kts 139°
2026-05-04 13:44 45.92410 14.84863 35053 ft 462 kts 139°
2026-05-04 13:44 45.87638 14.91057 35047 ft 462 kts 139°
2026-05-04 13:45 45.82861 14.97224 35047 ft 462 kts 139°
2026-05-04 13:45 45.78079 15.03378 35040 ft 462 kts 139°
2026-05-04 13:46 45.73331 15.09486 35044 ft 462 kts 139°
2026-05-04 13:46 45.68549 15.15638 35045 ft 462 kts 139°
2026-05-04 13:47 45.63748 15.21783 35032 ft 463 kts 139°
2026-05-04 13:47 45.58942 15.27919 35044 ft 463 kts 139°
2026-05-04 13:48 45.54581 15.34680 35037 ft 464 kts 130°
2026-05-04 13:48 45.50416 15.41723 35031 ft 464 kts 131°
2026-05-04 13:49 45.46237 15.48737 35134 ft 465 kts 131°
2026-05-04 13:49 45.44137 15.52246 35257 ft 465 kts 131°
2026-05-04 13:49 45.42043 15.55752 35376 ft 465 kts 131°
2026-05-04 13:50 45.39952 15.59258 35511 ft 464 kts 131°
2026-05-04 13:50 45.37863 15.62757 35632 ft 464 kts 131°
2026-05-04 13:50 45.35769 15.66258 35761 ft 464 kts 131°
2026-05-04 13:50 45.33676 15.69747 35885 ft 464 kts 131°
2026-05-04 13:51 45.31583 15.73231 36015 ft 464 kts 131°
2026-05-04 13:51 45.29487 15.76713 36143 ft 464 kts 131°
2026-05-04 13:51 45.27415 15.80148 36268 ft 463 kts 131°
2026-05-04 13:51 45.25321 15.83615 36388 ft 463 kts 131°
2026-05-04 13:52 45.21127 15.90557 36642 ft 463 kts 131°
2026-05-04 13:52 45.19031 15.94022 36779 ft 463 kts 131°
2026-05-04 13:52 45.16937 15.97482 36952 ft 463 kts 131°
2026-05-04 13:53 45.14836 16.00947 37034 ft 463 kts 131°
2026-05-04 13:53 45.10642 16.07851 37041 ft 462 kts 131°
2026-05-04 13:54 45.04349 16.18184 37035 ft 462 kts 131°
2026-05-04 13:55 44.98033 16.28500 37042 ft 463 kts 131°
2026-05-04 13:55 44.91701 16.38819 37046 ft 464 kts 131°
2026-05-04 13:56 44.87478 16.45696 37054 ft 464 kts 131°
2026-05-04 13:57 44.81120 16.55994 37060 ft 464 kts 130°
2026-05-04 13:58 44.72629 16.69663 37065 ft 464 kts 131°
2026-05-04 13:58 44.66256 16.79894 37068 ft 463 kts 131°
2026-05-04 13:59 44.62006 16.86701 37066 ft 464 kts 130°
2026-05-04 14:00 44.55534 16.96820 37072 ft 464 kts 133°
2026-05-04 14:00 44.48810 17.06599 37076 ft 465 kts 133°
2026-05-04 14:01 44.44334 17.13145 37079 ft 465 kts 133°
2026-05-04 14:02 44.37653 17.23001 37081 ft 465 kts 133°
2026-05-04 14:02 44.33184 17.29559 37082 ft 465 kts 133°
2026-05-04 14:03 44.28710 17.36086 37079 ft 465 kts 133°
2026-05-04 14:03 44.24243 17.42601 37095 ft 465 kts 133°
2026-05-04 14:04 44.17569 17.52328 37075 ft 465 kts 133°
2026-05-04 14:04 44.13089 17.58824 37075 ft 465 kts 133°
2026-05-04 14:05 44.06332 17.68567 37096 ft 467 kts 133°
2026-05-04 14:06 44.01823 17.75063 37095 ft 466 kts 133°
2026-05-04 14:06 43.97322 17.81547 37091 ft 467 kts 133°
2026-05-04 14:07 43.92813 17.88027 37087 ft 467 kts 133°
2026-05-04 14:07 43.88294 17.94497 37099 ft 466 kts 133°
2026-05-04 14:08 43.83776 18.00947 37102 ft 467 kts 133°
2026-05-04 14:08 43.79250 18.07394 37098 ft 467 kts 133°
2026-05-04 14:09 43.72441 18.17057 37091 ft 467 kts 133°
2026-05-04 14:10 43.65633 18.26709 37086 ft 468 kts 133°
2026-05-04 14:10 43.61081 18.33150 37097 ft 469 kts 133°
2026-05-04 14:11 43.56518 18.39563 37111 ft 469 kts 134°
2026-05-04 14:11 43.49657 18.49185 37124 ft 469 kts 133°
2026-05-04 14:12 43.45087 18.55591 37118 ft 469 kts 133°
2026-05-04 14:13 43.38248 18.65159 37105 ft 470 kts 134°
2026-05-04 14:13 43.33538 18.71385 37101 ft 471 kts 140°
2026-05-04 14:14 43.28466 18.77089 37102 ft 471 kts 140°
2026-05-04 14:14 43.20866 18.85625 37116 ft 470 kts 140°
2026-05-04 14:15 43.10753 18.96992 37103 ft 470 kts 140°
2026-05-04 14:16 43.03146 19.05496 37106 ft 470 kts 140°
2026-05-04 14:17 42.95574 19.13923 37108 ft 470 kts 139°
2026-05-04 14:18 42.87966 19.22388 37099 ft 471 kts 140°
2026-05-04 14:19 42.77782 19.33633 37102 ft 471 kts 140°
2026-05-04 14:19 42.72688 19.39252 37102 ft 471 kts 140°
2026-05-04 14:20 42.68450 19.43912 37099 ft 472 kts 140°
2026-05-04 14:20 42.63342 19.49524 37108 ft 472 kts 140°
2026-05-04 14:21 42.55666 19.57924 37101 ft 473 kts 140°
2026-05-04 14:21 42.50541 19.63512 37098 ft 473 kts 140°
2026-05-04 14:22 42.45414 19.69106 37102 ft 474 kts 140°
2026-05-04 14:22 42.40265 19.74706 37106 ft 475 kts 140°
2026-05-04 14:23 42.32535 19.83085 37121 ft 475 kts 140°
2026-05-04 14:24 42.27359 19.88666 37122 ft 476 kts 140°
2026-05-04 14:24 42.22186 19.94249 37116 ft 477 kts 140°
2026-05-04 14:25 42.16991 19.99848 37126 ft 478 kts 139°
2026-05-04 14:25 42.09191 20.08211 37140 ft 478 kts 140°
2026-05-04 14:26 42.03973 20.13776 37157 ft 478 kts 140°
2026-05-04 14:26 41.98765 20.19340 37145 ft 478 kts 139°
2026-05-04 14:27 41.93584 20.24871 37149 ft 479 kts 139°
2026-05-04 14:27 41.88359 20.30420 37147 ft 478 kts 140°
2026-05-04 14:28 41.83135 20.35965 37149 ft 479 kts 140°
2026-05-04 14:28 41.77909 20.41495 37139 ft 479 kts 140°
2026-05-04 14:29 41.67423 20.52534 37152 ft 480 kts 140°
2026-05-04 14:30 41.62184 20.58065 37145 ft 480 kts 139°
2026-05-04 14:31 41.54356 20.66353 37134 ft 481 kts 140°
2026-05-04 14:32 41.43852 20.77399 37140 ft 481 kts 140°
2026-05-04 14:32 41.38587 20.82918 37164 ft 481 kts 140°
2026-05-04 14:33 41.33312 20.88424 37149 ft 482 kts 140°
2026-05-04 14:33 41.28043 20.93924 37139 ft 482 kts 140°
2026-05-04 14:34 41.22769 20.99428 37123 ft 482 kts 140°
2026-05-04 14:34 41.17481 21.04930 37115 ft 483 kts 140°
2026-05-04 14:35 41.12182 21.10429 37115 ft 484 kts 140°
2026-05-04 14:35 41.06875 21.15928 37137 ft 484 kts 140°
2026-05-04 14:36 41.01557 21.21417 37127 ft 484 kts 140°
2026-05-04 14:36 40.96240 21.26886 37117 ft 484 kts 140°
2026-05-04 14:37 40.90916 21.32351 37120 ft 485 kts 140°
2026-05-04 14:37 40.85832 21.38160 37117 ft 482 kts 131°
2026-05-04 14:38 40.81214 21.44571 37111 ft 482 kts 131°
2026-05-04 14:38 40.76584 21.50972 37112 ft 482 kts 131°
2026-05-04 14:39 40.71936 21.57363 37116 ft 483 kts 131°
2026-05-04 14:39 40.67277 21.63738 37113 ft 483 kts 131°
2026-05-04 14:40 40.60313 21.73256 37126 ft 483 kts 131°
2026-05-04 14:40 40.55657 21.79619 37148 ft 483 kts 131°
2026-05-04 14:41 40.50989 21.85982 37152 ft 483 kts 131°
2026-05-04 14:42 40.41592 21.98582 37136 ft 483 kts 134°
2026-05-04 14:42 40.36647 22.04567 37140 ft 484 kts 136°
2026-05-04 14:43 40.31655 22.10489 37135 ft 484 kts 135°
2026-05-04 14:43 40.26712 22.16469 37150 ft 483 kts 135°
2026-05-04 14:44 40.21807 22.22470 37137 ft 481 kts 135°
2026-05-04 14:44 40.16896 22.28444 37116 ft 482 kts 135°
2026-05-04 14:45 40.11970 22.34410 37108 ft 483 kts 135°
2026-05-04 14:45 40.07037 22.40357 37109 ft 483 kts 135°
2026-05-04 14:46 40.02091 22.46305 37126 ft 483 kts 135°
2026-05-04 14:46 39.97151 22.52253 37128 ft 484 kts 135°
2026-05-04 14:47 39.92203 22.58193 37116 ft 484 kts 135°
2026-05-04 14:47 39.87251 22.64119 37116 ft 484 kts 135°
2026-05-04 14:48 39.82316 22.70022 37110 ft 485 kts 135°
2026-05-04 14:48 39.77339 22.75959 37108 ft 485 kts 135°
2026-05-04 14:49 39.72361 22.81890 37125 ft 485 kts 135°
2026-05-04 14:49 39.67384 22.87802 37122 ft 485 kts 136°
2026-05-04 14:50 39.62407 22.93702 37114 ft 485 kts 136°
2026-05-04 14:50 39.57420 22.99598 37109 ft 485 kts 136°
2026-05-04 14:51 39.52431 23.05483 37104 ft 485 kts 136°
2026-05-04 14:51 39.47449 23.11361 37132 ft 485 kts 136°
2026-05-04 14:52 39.42467 23.17236 37136 ft 484 kts 136°
2026-05-04 14:52 39.37481 23.23089 37120 ft 483 kts 136°
2026-05-04 14:53 39.32503 23.28910 37111 ft 484 kts 136°
2026-05-04 14:53 39.27507 23.34736 37108 ft 484 kts 136°
2026-05-04 14:54 39.22499 23.40571 37107 ft 485 kts 136°
2026-05-04 14:54 39.17520 23.46365 37171 ft 485 kts 136°
2026-05-04 14:55 39.12520 23.52184 37164 ft 484 kts 136°
2026-05-04 14:55 39.07522 23.57973 37148 ft 483 kts 136°
2026-05-04 14:56 39.02527 23.63749 37134 ft 483 kts 137°
2026-05-04 14:56 38.97528 23.69527 37099 ft 484 kts 136°
2026-05-04 14:57 38.95023 23.72423 36828 ft 484 kts 136°
2026-05-04 14:57 38.92519 23.75318 36594 ft 484 kts 136°
2026-05-04 14:57 38.90007 23.78216 36335 ft 483 kts 137°
2026-05-04 14:57 38.87510 23.81087 36084 ft 481 kts 137°
2026-05-04 14:58 38.85011 23.83953 35836 ft 482 kts 137°
2026-05-04 14:58 38.82508 23.86819 35591 ft 482 kts 136°
2026-05-04 14:58 38.79999 23.89691 35272 ft 485 kts 137°
2026-05-04 14:58 38.78325 23.91607 34674 ft 490 kts 137°
2026-05-04 14:59 38.74902 23.95530 33347 ft 497 kts 136°
2026-05-04 14:59 38.72329 23.98481 32426 ft 497 kts 136°
2026-05-04 14:59 38.67209 24.04321 31140 ft 484 kts 136°
2026-05-04 15:00 38.64706 24.07169 30561 ft 478 kts 136°
2026-05-04 15:00 38.62283 24.09923 30117 ft 466 kts 136°
2026-05-04 15:00 38.59887 24.12648 29538 ft 458 kts 136°
2026-05-04 15:01 38.55181 24.17996 28166 ft 448 kts 136°
2026-05-04 15:01 38.55084 24.18106 28145 ft 448 kts 136°
2026-05-04 15:01 38.53424 24.19991 27709 ft 444 kts 137°
2026-05-04 15:01 38.51131 24.22591 27145 ft 439 kts 136°
2026-05-04 15:02 38.48859 24.25162 26587 ft 434 kts 136°
2026-05-04 15:02 38.46609 24.27704 26043 ft 429 kts 136°
2026-05-04 15:02 38.44393 24.30209 25509 ft 425 kts 136°
2026-05-04 15:02 38.42140 24.32607 25038 ft 420 kts 142°
2026-05-04 15:03 38.39676 24.34600 24558 ft 417 kts 147°
2026-05-04 15:03 38.37193 24.36470 24106 ft 413 kts 147°
2026-05-04 15:03 38.34732 24.38327 23641 ft 410 kts 147°
2026-05-04 15:03 38.32283 24.40177 23152 ft 408 kts 147°
2026-05-04 15:04 38.29859 24.42002 22868 ft 400 kts 147°
2026-05-04 15:04 38.27502 24.43778 22769 ft 388 kts 147°
2026-05-04 15:04 38.25221 24.45497 22685 ft 375 kts 147°
2026-05-04 15:04 38.23010 24.47160 22595 ft 367 kts 147°
2026-05-04 15:05 38.20800 24.48829 22507 ft 370 kts 147°
2026-05-04 15:05 38.18582 24.50504 22419 ft 372 kts 147°
2026-05-04 15:05 38.16363 24.52177 22326 ft 372 kts 147°
2026-05-04 15:05 38.14136 24.53856 22240 ft 372 kts 147°
2026-05-04 15:06 38.11912 24.55529 22147 ft 371 kts 147°
2026-05-04 15:06 38.09686 24.57197 21921 ft 371 kts 147°
2026-05-04 15:06 38.07471 24.58853 21486 ft 369 kts 147°
2026-05-04 15:07 38.03067 24.62142 20587 ft 365 kts 147°
2026-05-04 15:07 38.00879 24.63780 20115 ft 367 kts 147°
2026-05-04 15:07 37.99425 24.64868 19796 ft 367 kts 147°
2026-05-04 15:07 37.96519 24.67040 19171 ft 366 kts 147°
2026-05-04 15:08 37.94325 24.68678 18688 ft 366 kts 148°
2026-05-04 15:08 37.92129 24.70313 18166 ft 366 kts 148°
2026-05-04 15:08 37.89937 24.71944 17655 ft 365 kts 147°
2026-05-04 15:08 37.87753 24.73570 17159 ft 363 kts 147°
2026-05-04 15:09 37.85578 24.75192 16660 ft 362 kts 147°
2026-05-04 15:09 37.84137 24.76265 16335 ft 362 kts 147°
2026-05-04 15:09 37.81974 24.77874 15833 ft 361 kts 147°
2026-05-04 15:10 37.77645 24.81088 14832 ft 361 kts 147°
2026-05-04 15:10 37.75485 24.82689 14324 ft 360 kts 147°
2026-05-04 15:10 37.71180 24.85882 13301 ft 357 kts 147°
2026-05-04 15:11 37.69044 24.87465 12797 ft 357 kts 147°
2026-05-04 15:11 37.66910 24.89048 12296 ft 355 kts 147°
2026-05-04 15:11 37.64782 24.90620 11804 ft 353 kts 148°
2026-05-04 15:11 37.62667 24.92181 11323 ft 352 kts 148°
2026-05-04 15:12 37.60561 24.93733 10831 ft 350 kts 148°
2026-05-04 15:12 37.58464 24.95276 10472 ft 346 kts 148°
2026-05-04 15:12 37.56422 24.96780 10338 ft 334 kts 148°
2026-05-04 15:12 37.54446 24.98235 10233 ft 322 kts 148°
2026-05-04 15:13 37.52545 24.99638 10069 ft 314 kts 148°
2026-05-04 15:13 37.50661 25.01034 9671 ft 313 kts 146°
2026-05-04 15:13 37.49014 25.02772 9253 ft 310 kts 129°
2026-05-04 15:13 37.47820 25.05006 8882 ft 305 kts 112°
2026-05-04 15:14 37.47149 25.07493 8651 ft 297 kts 97°
2026-05-04 15:14 37.46843 25.10047 8401 ft 295 kts 94°
2026-05-04 15:14 37.46550 25.12577 8154 ft 295 kts 95°
2026-05-04 15:14 37.46251 25.15166 7906 ft 295 kts 94°
2026-05-04 15:15 37.45958 25.17720 7646 ft 295 kts 94°
2026-05-04 15:15 37.45669 25.20271 7405 ft 295 kts 94°
2026-05-04 15:15 37.45381 25.22818 7164 ft 293 kts 95°
2026-05-04 15:16 37.44798 25.27860 6675 ft 293 kts 95°
2026-05-04 15:16 37.44498 25.30384 6483 ft 287 kts 95°
2026-05-04 15:16 37.43991 25.35219 6169 ft 271 kts 87°
2026-05-04 15:17 37.43923 25.37560 6019 ft 267 kts 87°
2026-05-04 15:17 37.43802 25.42211 5602 ft 265 kts 86°
2026-05-04 15:17 37.43741 25.44529 5387 ft 265 kts 88°
2026-05-04 15:18 37.43344 25.46799 5163 ft 271 kts 114°
2026-05-04 15:18 37.42198 25.48670 4941 ft 273 kts 142°
2026-05-04 15:18 37.40532 25.49733 4701 ft 267 kts 171°
2026-05-04 15:19 37.36887 25.50439 4252 ft 261 kts 174°
2026-05-04 15:19 37.35091 25.50769 4022 ft 259 kts 174°
2026-05-04 15:19 37.31635 25.50441 3588 ft 242 kts 212°
2026-05-04 15:20 37.30342 25.49199 3373 ft 228 kts 234°
2026-05-04 15:20 37.29543 25.47557 3173 ft 215 kts 255°
2026-05-04 15:20 37.29054 25.45798 2990 ft 213 kts 256°
2026-05-04 15:20 37.28608 25.44033 2901 ft 210 kts 268°
2026-05-04 15:21 37.28793 25.42292 2808 ft 201 kts 300°
2026-05-04 15:21 37.29682 25.41014 2654 ft 194 kts 331°
2026-05-04 15:21 37.32192 25.39832 2357 ft 193 kts 341°
2026-05-04 15:22 37.33457 25.39271 2249 ft 191 kts 340°
2026-05-04 15:22 37.34715 25.38712 2038 ft 192 kts 341°
2026-05-04 15:22 37.37129 25.37650 1591 ft 172 kts 341°
2026-05-04 15:23 37.38210 25.37173 1343 ft 156 kts 341°
2026-05-04 15:23 37.39173 25.36745 1162 ft 138 kts 342°
2026-05-04 15:23 37.40051 25.36358 966 ft 129 kts 341°
2026-05-04 15:23 37.40891 25.35980 799 ft 125 kts 340°
2026-05-04 15:24 37.42555 25.35251 477 ft 127 kts 341°
2026-05-04 15:24 37.43816 25.34689 409 ft 51 kts 340°
2026-05-04 15:25 37.44121 25.34553 408 ft 37 kts 340°
2026-05-04 15:25 37.44246 25.34488 404 ft 13 kts 318°
2026-05-04 15:25 37.44299 25.34466 403 ft 9 kts 82°
2026-05-04 15:26 37.44128 25.34551 408 ft 26 kts 160°
2026-05-04 15:26 37.43919 25.34645 410 ft 35 kts 161°
2026-05-04 15:26 37.43669 25.34710 410 ft 11 kts 214°
2026-05-04 15:27 37.43610 25.34671 408 ft 9 kts 188°
2026-05-04 15:27 37.43527 25.34701 406 ft 8 kts 161°
2026-05-04 15:28 37.43441 25.34726 408 ft 3 kts 228°
2026-05-04 15:28 37.43429 25.34686 407 ft 3 kts 251°
2026-05-04 15:28 37.43426 25.34674 407 ft 0 kts 251°